contact:dominique.lefevre@mio.osupytheas.fr, maurice.libes@osupytheas.fr, didier.mallarino@osupytheas.fr
Project:EMSO http://www.emso-fr.org/EMSO-France
Depth: 2436.0 m
Title:EMSO Ligure Ouest : Data MII capteur AQUADOPP
Date,Latitude,Longitude,X_East,Y_North,Z_Up,Amplitude_X,Amplitude_Y,Amplitude_Z,Batterie,SoundSpeed,Heading,Pitch,Roll,Pressure,TIS,Speed,Direction
, degrees North, degrees East, m.s-1, m.s-1,m.s-1, 1, 1, 1, Volt, m.s-1, degree, degree, degree, dbar, degree_C, m.s-1, degree
2023-07-18T00:04:03,42.805,6.029,-0.016,0.053,-0.004,102.0,103.0,101.0,13.3,1505.2,337.1,-0.8,1.8,2471.464,13.29,0.055,343.2
2023-07-18T00:07:03,42.805,6.029,-0.025,0.028,-0.01,102.0,102.0,100.0,13.4,1505.2,321.0,-0.8,1.8,2471.482,13.29,0.037,318.2
2023-07-18T00:10:03,42.805,6.029,-0.015,0.017,-0.04,103.0,103.0,102.0,13.3,1505.2,349.1,-0.7,1.8,2471.482,13.29,0.022,318.6
2023-07-18T00:13:03,42.805,6.029,-0.023,-0.014,-0.065,102.0,102.0,101.0,13.3,1505.2,321.7,-0.8,1.8,2471.44,13.29,0.026,238.7
2023-07-18T00:16:03,42.805,6.029,-0.02,0.019,-0.054,102.0,101.0,102.0,13.3,1505.2,335.5,-0.8,1.8,2471.485,13.29,0.027,313.5
2023-07-18T00:19:03,42.805,6.029,-0.027,0.009,-0.039,102.0,105.0,101.0,13.4,1505.2,335.9,-0.7,1.8,2471.44,13.29,0.028,288.4
2023-07-18T00:22:03,42.805,6.029,-0.043,0.023,-0.03,102.0,102.0,101.0,13.3,1505.2,329.8,-0.7,1.8,2471.444,13.29,0.048,298.1
2023-07-18T00:25:03,42.805,6.029,-0.032,0.019,-0.02,104.0,103.0,102.0,13.3,1505.2,329.0,-0.8,1.8,2471.409,13.29,0.037,300.7
2023-07-18T00:28:03,42.805,6.029,-0.011,0.005,-0.009,103.0,102.0,102.0,13.3,1505.2,331.5,-0.8,1.8,2471.432,13.29,0.012,294.4
2023-07-18T00:31:03,42.805,6.029,0.007,-0.002,-0.032,103.0,102.0,101.0,13.4,1505.2,343.1,-0.7,1.8,2471.439,13.29,0.007,105.9
2023-07-18T00:34:03,42.805,6.029,-0.031,0.0,-0.038,102.0,102.0,101.0,13.4,1505.2,334.4,-0.8,1.8,2471.415,13.29,0.03,270.0
2023-07-18T00:37:03,42.805,6.029,-0.009,0.004,-0.021,102.0,101.0,101.0,13.4,1505.2,333.4,-0.8,1.8,2471.411,13.29,0.009,294.0
2023-07-18T00:40:03,42.805,6.029,-0.011,0.01,-0.012,103.0,102.0,101.0,13.3,1505.2,324.2,-0.8,1.8,2471.399,13.29,0.014,312.3
2023-07-18T00:43:03,42.805,6.029,-0.005,0.031,-0.012,103.0,102.0,102.0,13.4,1505.2,345.4,-0.8,1.8,2471.425,13.29,0.031,350.8
2023-07-18T00:46:03,42.805,6.029,-0.044,0.033,-0.019,102.0,102.0,101.0,13.3,1505.2,331.4,-0.7,1.8,2471.421,13.29,0.055,306.9
2023-07-18T00:49:03,42.805,6.029,-0.031,0.012,0.007,101.0,104.0,101.0,13.3,1505.2,330.3,-0.8,1.8,2471.455,13.29,0.033,291.2
2023-07-18T00:52:03,42.805,6.029,-0.004,-0.003,-0.05,102.0,102.0,101.0,13.4,1505.2,345.0,-0.8,1.8,2471.428,13.29,0.005,233.1
2023-07-18T00:55:03,42.805,6.029,-0.012,0.043,-0.036,102.0,102.0,101.0,13.4,1505.2,347.1,-0.7,1.8,2471.426,13.29,0.044,344.4
2023-07-18T00:58:03,42.805,6.029,-0.023,0.0,-0.036,102.0,102.0,101.0,13.4,1505.2,323.9,-0.8,1.8,2471.402,13.29,0.023,270.0
2023-07-18T01:04:03,42.805,6.029,0.003,0.035,-0.031,104.0,103.0,103.0,13.4,1505.2,337.4,-0.8,1.8,2471.444,13.29,0.035,4.9
2023-07-18T01:07:03,42.805,6.029,-0.016,0.023,-0.03,102.0,102.0,101.0,13.3,1505.2,332.5,-0.8,1.8,2471.448,13.29,0.028,325.2
2023-07-18T01:10:03,42.805,6.029,-0.029,0.01,-0.027,102.0,103.0,101.0,13.4,1505.2,343.8,-0.7,1.8,2471.466,13.29,0.03,289.0
2023-07-18T01:13:03,42.805,6.029,-0.025,0.022,0.013,102.0,103.0,102.0,13.3,1505.2,334.2,-0.7,1.8,2471.42,13.29,0.033,311.3
2023-07-18T01:16:03,42.805,6.029,-0.024,0.025,-0.04,102.0,103.0,101.0,13.4,1505.2,332.4,-0.7,1.8,2471.416,13.29,0.034,316.2
2023-07-18T01:19:03,42.805,6.029,-0.001,-0.007,-0.042,102.0,102.0,101.0,13.3,1505.2,350.7,-0.8,1.9,2471.344,13.29,0.007,188.1
2023-07-18T01:22:03,42.805,6.029,-0.046,0.023,-0.048,103.0,103.0,101.0,13.4,1505.2,342.5,-0.8,1.8,2471.414,13.29,0.051,296.6
2023-07-18T01:25:03,42.805,6.029,-0.031,-0.013,-0.038,102.0,102.0,101.0,13.4,1505.2,335.7,-0.8,1.8,2471.405,13.29,0.033,247.3
2023-07-18T01:28:03,42.805,6.029,-0.031,0.014,-0.041,102.0,103.0,101.0,13.4,1505.2,339.5,-0.7,1.8,2471.37,13.29,0.034,294.3
2023-07-18T01:31:03,42.805,6.029,-0.015,0.029,-0.014,103.0,102.0,101.0,13.4,1505.2,347.1,-0.7,1.8,2471.352,13.29,0.032,332.6
2023-07-18T01:34:03,42.805,6.029,-0.035,-0.001,-0.032,102.0,102.0,101.0,13.4,1505.2,338.6,-0.7,1.8,2471.369,13.29,0.035,268.4
2023-07-18T01:37:03,42.805,6.029,-0.03,0.021,-0.04,103.0,102.0,101.0,13.4,1505.2,326.8,-0.8,1.8,2471.349,13.29,0.036,305.0
2023-07-18T01:40:03,42.805,6.029,-0.007,0.018,-0.015,103.0,101.0,101.0,13.4,1505.2,353.1,-0.8,1.8,2471.323,13.29,0.019,338.8
2023-07-18T01:43:03,42.805,6.029,-0.031,0.002,-0.042,103.0,102.0,101.0,13.4,1505.2,321.0,-0.7,1.8,2471.378,13.29,0.031,273.7
2023-07-18T01:46:03,42.805,6.029,-0.022,0.016,-0.04,102.0,102.0,102.0,13.3,1505.2,333.4,-0.8,1.8,2471.37,13.29,0.027,306.0
2023-07-18T01:49:03,42.805,6.029,-0.016,0.026,-0.015,103.0,102.0,101.0,13.4,1505.2,350.3,-0.7,1.9,2471.447,13.29,0.03,328.4
2023-07-18T01:52:03,42.805,6.029,-0.025,0.024,0.001,103.0,101.0,102.0,13.4,1505.2,333.0,-0.7,1.8,2471.379,13.29,0.034,313.8
2023-07-18T01:55:03,42.805,6.029,-0.032,0.024,0.016,102.0,101.0,102.0,13.4,1505.2,323.6,-0.8,1.8,2471.369,13.29,0.04,306.9
2023-07-18T01:58:03,42.805,6.029,-0.025,0.015,-0.017,103.0,103.0,101.0,13.3,1505.2,344.5,-0.8,1.8,2471.388,13.29,0.029,301.0
2023-07-18T02:04:03,42.805,6.029,-0.021,0.018,-0.039,104.0,102.0,101.0,13.4,1505.2,338.2,-0.7,1.8,2471.431,13.29,0.027,310.6
2023-07-18T02:07:03,42.805,6.029,-0.028,0.03,-0.057,103.0,102.0,101.0,13.3,1505.2,353.1,-0.8,1.8,2471.391,13.29,0.041,317.0
2023-07-18T02:10:03,42.805,6.029,-0.013,-0.002,-0.02,103.0,101.0,101.0,13.4,1505.2,346.2,-0.7,1.9,2471.39,13.29,0.013,261.3
2023-07-18T02:13:03,42.805,6.029,-0.03,0.019,-0.023,103.0,102.0,101.0,13.4,1505.2,341.5,-0.8,1.8,2471.353,13.29,0.035,302.3
2023-07-18T02:16:03,42.805,6.029,-0.01,0.005,-0.017,103.0,102.0,102.0,13.3,1505.2,333.8,-0.7,1.8,2471.406,13.29,0.011,296.6
2023-07-18T02:19:03,42.805,6.029,-0.028,0.011,-0.011,102.0,102.0,102.0,13.4,1505.2,351.7,-0.8,1.8,2471.382,13.29,0.03,291.4
2023-07-18T02:22:03,42.805,6.029,-0.016,0.01,-0.027,103.0,102.0,101.0,13.4,1505.2,344.0,-0.8,1.8,2471.352,13.29,0.018,302.0
2023-07-18T02:25:03,42.805,6.029,-0.017,0.026,-0.031,102.0,102.0,101.0,13.3,1505.2,341.5,-0.8,1.8,2471.358,13.29,0.031,326.8
2023-07-18T02:28:03,42.805,6.029,-0.01,0.014,-0.021,102.0,101.0,102.0,13.4,1505.2,347.4,-0.7,1.8,2471.362,13.29,0.017,324.5
2023-07-18T02:31:03,42.805,6.029,-0.036,0.005,-0.026,102.0,101.0,102.0,13.4,1505.2,328.3,-0.7,1.8,2471.339,13.29,0.036,277.9
2023-07-18T02:34:03,42.805,6.029,-0.021,-0.007,-0.042,101.0,101.0,104.0,13.4,1505.2,322.3,-0.8,1.8,2471.366,13.29,0.022,251.6
2023-07-18T02:37:03,42.805,6.029,-0.028,0.036,0.012,103.0,102.0,101.0,13.4,1505.2,331.8,-0.8,1.8,2471.38,13.29,0.045,322.1
2023-07-18T02:40:03,42.805,6.029,-0.03,0.007,0.003,103.0,103.0,101.0,13.4,1505.2,327.8,-0.7,1.8,2471.38,13.29,0.03,283.1
2023-07-18T02:43:03,42.805,6.029,-0.029,0.013,-0.017,102.0,102.0,102.0,13.4,1505.2,335.2,-0.8,1.8,2471.36,13.29,0.031,294.1
2023-07-18T02:46:03,42.805,6.029,-0.039,0.005,-0.014,103.0,102.0,102.0,13.4,1505.2,336.4,-0.8,1.8,2471.399,13.29,0.039,277.3
2023-07-18T02:49:03,42.805,6.029,-0.042,-0.005,-0.034,101.0,102.0,101.0,13.4,1505.2,330.6,-0.8,1.8,2471.393,13.29,0.042,263.2
2023-07-18T02:52:03,42.805,6.029,-0.031,0.032,-0.033,102.0,102.0,101.0,13.4,1505.2,352.6,-0.8,1.8,2471.355,13.29,0.044,315.9
2023-07-18T02:55:03,42.805,6.029,-0.023,0.022,-0.009,102.0,104.0,101.0,13.3,1505.2,332.6,-0.8,1.8,2471.389,13.29,0.031,313.7
2023-07-18T02:58:03,42.805,6.029,-0.018,0.01,-0.03,103.0,102.0,101.0,13.4,1505.2,338.0,-0.8,1.8,2471.355,13.29,0.02,299.1
2023-07-18T03:04:03,42.805,6.029,-0.024,0.026,-0.037,102.0,102.0,101.0,13.4,1505.2,342.7,-0.7,1.8,2471.387,13.28,0.035,317.3
2023-07-18T03:07:03,42.805,6.029,-0.02,0.008,-0.054,104.0,103.0,100.0,13.4,1505.2,351.3,-0.7,1.8,2471.394,13.29,0.021,291.8
2023-07-18T03:10:03,42.805,6.029,-0.016,0.016,0.0,103.0,103.0,100.0,13.3,1505.2,332.4,-0.8,1.8,2471.357,13.29,0.022,315.0
2023-07-18T03:13:03,42.805,6.029,-0.023,0.016,-0.006,104.0,102.0,101.0,13.4,1505.2,332.0,-0.8,1.8,2471.39,13.29,0.028,304.8
2023-07-18T03:16:03,42.805,6.029,-0.018,0.004,-0.055,103.0,102.0,101.0,13.4,1505.2,325.5,-0.8,1.8,2471.375,13.29,0.018,282.5
2023-07-18T03:19:03,42.805,6.029,-0.021,0.017,-0.027,103.0,104.0,101.0,13.3,1505.2,322.3,-0.8,1.8,2471.396,13.29,0.027,309.0
2023-07-18T03:22:03,42.805,6.029,-0.014,0.005,-0.027,103.0,102.0,101.0,13.4,1505.2,339.3,-0.8,1.8,2471.365,13.29,0.014,289.6
2023-07-18T03:25:03,42.805,6.029,-0.025,0.016,-0.032,102.0,104.0,102.0,13.3,1505.2,349.9,-0.7,1.8,2471.374,13.29,0.029,302.6
2023-07-18T03:28:03,42.805,6.029,-0.026,0.007,-0.009,102.0,104.0,101.0,13.4,1505.2,324.1,-0.8,1.8,2471.394,13.29,0.026,285.1
2023-07-18T03:31:03,42.805,6.029,-0.036,0.03,-0.012,103.0,102.0,102.0,13.4,1505.2,345.6,-0.8,1.8,2471.391,13.29,0.046,309.8
2023-07-18T03:34:03,42.805,6.029,-0.017,0.011,-0.026,103.0,102.0,101.0,13.4,1505.2,339.5,-0.7,1.8,2471.373,13.29,0.02,302.9
2023-07-18T03:37:03,42.805,6.029,-0.026,-0.003,-0.044,104.0,101.0,103.0,13.4,1505.2,334.3,-0.8,1.8,2471.362,13.29,0.026,263.4
2023-07-18T03:40:03,42.805,6.029,-0.028,0.02,-0.013,102.0,102.0,102.0,13.3,1505.2,328.8,-0.8,1.8,2471.412,13.29,0.034,305.5
2023-07-18T03:43:03,42.805,6.029,-0.036,0.001,-0.054,102.0,102.0,102.0,13.3,1505.2,331.1,-0.7,1.8,2471.372,13.29,0.036,271.6
2023-07-18T03:46:03,42.805,6.029,-0.007,0.008,-0.016,102.0,102.0,102.0,13.3,1505.2,331.6,-0.8,1.8,2471.383,13.29,0.01,318.8
2023-07-18T03:49:03,42.805,6.029,-0.042,-0.011,-0.029,103.0,103.0,102.0,13.4,1505.2,323.1,-0.8,1.8,2471.37,13.29,0.043,255.3
2023-07-18T03:52:03,42.805,6.029,-0.036,-0.019,-0.062,104.0,104.0,101.0,13.4,1505.2,327.3,-0.7,1.8,2471.383,13.29,0.04,242.2
2023-07-18T03:55:03,42.805,6.029,-0.002,0.022,0.011,103.0,102.0,101.0,13.4,1505.2,330.5,-0.8,1.8,2471.368,13.29,0.022,354.8
2023-07-18T03:58:03,42.805,6.029,-0.028,0.021,-0.005,103.0,102.0,104.0,13.3,1505.2,349.1,-0.7,1.8,2471.358,13.29,0.035,306.9
2023-07-18T04:04:03,42.805,6.029,-0.025,0.034,-0.007,103.0,102.0,101.0,13.3,1505.2,331.2,-0.8,1.8,2471.409,13.28,0.042,323.7
2023-07-18T04:07:03,42.805,6.029,-0.038,0.01,-0.013,104.0,102.0,102.0,13.4,1505.2,334.8,-0.8,1.8,2471.406,13.29,0.039,284.7
2023-07-18T04:10:03,42.805,6.029,-0.039,0.024,-0.026,102.0,103.0,102.0,13.4,1505.2,345.2,-0.8,1.8,2471.409,13.29,0.045,301.6
2023-07-18T04:13:03,42.805,6.029,-0.011,0.003,-0.034,103.0,102.0,101.0,13.4,1505.2,341.2,-0.8,1.8,2471.403,13.29,0.011,285.3
2023-07-18T04:16:03,42.805,6.029,-0.013,0.023,-0.037,102.0,103.0,101.0,13.3,1505.2,338.4,-0.8,1.8,2471.396,13.29,0.026,330.5
2023-07-18T04:19:03,42.805,6.029,-0.005,0.014,-0.045,104.0,103.0,102.0,13.3,1505.2,344.0,-0.7,1.8,2471.372,13.29,0.014,340.4
2023-07-18T04:22:03,42.805,6.029,-0.031,-0.003,-0.033,103.0,102.0,102.0,13.3,1505.2,333.4,-0.7,1.8,2471.354,13.29,0.031,264.5
2023-07-18T04:25:03,42.805,6.029,-0.01,0.014,-0.006,104.0,101.0,102.0,13.4,1505.2,352.0,-0.8,1.8,2471.345,13.29,0.017,324.5
2023-07-18T04:28:03,42.805,6.029,-0.03,-0.019,-0.025,103.0,102.0,101.0,13.4,1505.2,324.9,-0.8,1.8,2471.412,13.29,0.035,237.7
2023-07-18T04:31:03,42.805,6.029,-0.035,0.01,-0.016,103.0,102.0,101.0,13.4,1505.2,330.7,-0.8,1.8,2471.38,13.29,0.036,285.9
2023-07-18T04:34:03,42.805,6.029,-0.036,0.006,-0.035,103.0,103.0,102.0,13.4,1505.2,331.3,-0.7,1.8,2471.426,13.29,0.036,279.5
2023-07-18T04:37:03,42.805,6.029,-0.046,0.011,-0.022,103.0,102.0,101.0,13.4,1505.2,329.0,-0.8,1.8,2471.392,13.29,0.047,283.4
2023-07-18T04:40:03,42.805,6.029,-0.028,0.01,-0.034,104.0,102.0,102.0,13.4,1505.2,344.9,-0.8,1.8,2471.36,13.29,0.029,289.6
2023-07-18T04:43:03,42.805,6.029,-0.031,0.021,-0.012,103.0,103.0,101.0,13.4,1505.2,338.2,-0.7,1.8,2471.362,13.29,0.037,304.1
2023-07-18T04:46:03,42.805,6.029,-0.031,0.005,-0.046,103.0,103.0,101.0,13.4,1505.2,345.9,-0.8,1.8,2471.42,13.29,0.031,279.2
2023-07-18T04:49:03,42.805,6.029,-0.02,0.01,-0.016,103.0,103.0,102.0,13.4,1505.2,334.5,-0.8,1.8,2471.404,13.29,0.022,296.6
2023-07-18T04:52:03,42.805,6.029,0.002,0.011,-0.021,104.0,102.0,102.0,13.4,1505.2,334.5,-0.8,1.8,2471.409,13.29,0.011,10.3
2023-07-18T04:55:03,42.805,6.029,-0.022,0.013,-0.033,103.0,104.0,101.0,13.4,1505.2,321.4,-0.8,1.8,2471.419,13.29,0.025,300.6
2023-07-18T04:58:03,42.805,6.029,-0.008,0.011,-0.04,103.0,103.0,101.0,13.4,1505.2,325.0,-0.8,1.8,2471.398,13.29,0.013,324.0
2023-07-18T05:04:03,42.805,6.029,-0.006,0.004,-0.019,103.0,102.0,101.0,13.4,1505.2,343.1,-0.8,1.9,2471.448,13.29,0.007,303.7
2023-07-18T05:07:03,42.805,6.029,-0.039,0.017,-0.006,102.0,103.0,101.0,13.4,1505.2,326.0,-0.8,1.8,2471.452,13.29,0.042,293.5
2023-07-18T05:10:03,42.805,6.029,-0.007,0.014,-0.024,102.0,103.0,101.0,13.4,1505.2,354.0,-0.8,1.8,2471.477,13.29,0.015,333.4
2023-07-18T05:13:03,42.805,6.029,-0.023,0.021,-0.003,102.0,103.0,102.0,13.4,1505.2,326.0,-0.8,1.8,2471.451,13.29,0.031,312.4
2023-07-18T05:16:03,42.805,6.029,-0.014,-0.002,-0.039,102.0,102.0,102.0,13.4,1505.2,340.4,-0.8,1.8,2471.457,13.29,0.014,261.9
2023-07-18T05:19:03,42.805,6.029,-0.025,0.006,-0.015,102.0,102.0,102.0,13.3,1505.2,346.2,-0.7,1.8,2471.438,13.29,0.025,283.5
2023-07-18T05:22:03,42.805,6.029,-0.001,-0.018,-0.039,104.0,102.0,101.0,13.4,1505.2,330.6,-0.7,1.8,2471.413,13.29,0.018,183.2
2023-07-18T05:25:03,42.805,6.029,-0.005,0.013,-0.019,102.0,102.0,101.0,13.3,1505.2,351.5,-0.7,1.8,2471.446,13.29,0.013,339.0
2023-07-18T05:28:03,42.805,6.029,-0.024,0.018,-0.017,103.0,103.0,101.0,13.3,1505.2,353.1,-0.8,1.8,2471.404,13.29,0.03,306.9
2023-07-18T05:31:03,42.805,6.029,-0.004,0.031,0.002,103.0,103.0,101.0,13.3,1505.2,348.4,-0.8,1.8,2471.431,13.29,0.031,352.7
2023-07-18T05:34:03,42.805,6.029,-0.015,0.037,-0.001,102.0,101.0,102.0,13.4,1505.2,339.3,-0.8,1.8,2471.471,13.29,0.039,337.9
2023-07-18T05:37:03,42.805,6.029,-0.039,0.002,-0.039,101.0,104.0,101.0,13.4,1505.2,332.9,-0.8,1.8,2471.437,13.29,0.039,272.9
2023-07-18T05:40:03,42.805,6.029,-0.035,0.016,-0.022,103.0,102.0,102.0,13.4,1505.2,343.6,-0.7,1.8,2471.389,13.29,0.038,294.6
2023-07-18T05:43:03,42.805,6.029,-0.02,0.019,-0.056,102.0,103.0,101.0,13.3,1505.2,344.9,-0.8,1.8,2471.437,13.29,0.027,313.5
2023-07-18T05:46:03,42.805,6.029,-0.021,0.004,-0.016,102.0,102.0,102.0,13.4,1505.2,341.2,-0.8,1.8,2471.422,13.29,0.021,280.8
2023-07-18T05:49:03,42.805,6.029,-0.031,0.037,-0.021,103.0,101.0,102.0,13.4,1505.2,348.6,-0.8,1.8,2471.456,13.29,0.048,320.0
2023-07-18T05:52:03,42.805,6.029,-0.019,0.0,-0.036,103.0,103.0,101.0,13.4,1505.2,330.5,-0.8,1.8,2471.459,13.29,0.019,270.0
2023-07-18T05:55:03,42.805,6.029,-0.012,0.025,-0.006,104.0,103.0,100.0,13.4,1505.2,341.5,-0.8,1.8,2471.413,13.29,0.027,334.4
2023-07-18T05:58:03,42.805,6.029,-0.023,0.015,-0.042,102.0,103.0,102.0,13.4,1505.2,326.0,-0.8,1.8,2471.424,13.29,0.027,303.1
2023-07-18T06:04:03,42.805,6.029,-0.02,-0.011,-0.045,103.0,103.0,101.0,13.3,1505.2,330.2,-0.7,1.8,2471.458,13.29,0.022,241.2
2023-07-18T06:07:03,42.805,6.029,0.024,-0.013,-0.035,103.0,101.0,102.0,13.3,1505.2,335.8,-0.8,1.8,2471.464,13.29,0.027,118.4
2023-07-18T06:10:03,42.805,6.029,-0.034,0.02,-0.044,103.0,102.0,102.0,13.4,1505.2,339.0,-0.8,1.8,2471.492,13.29,0.039,300.5
2023-07-18T06:13:03,42.805,6.029,-0.034,0.017,-0.02,103.0,103.0,101.0,13.4,1505.2,323.5,-0.8,1.8,2471.459,13.29,0.038,296.6
2023-07-18T06:16:03,42.805,6.029,-0.026,0.017,-0.047,102.0,102.0,101.0,13.4,1505.2,345.4,-0.7,1.8,2471.447,13.29,0.031,303.2
2023-07-18T06:19:03,42.805,6.029,-0.015,0.028,-0.001,103.0,102.0,101.0,13.4,1505.2,345.1,-0.8,1.8,2471.445,13.29,0.031,331.8
2023-07-18T06:22:03,42.805,6.029,-0.023,0.01,-0.047,102.0,102.0,101.0,13.4,1505.2,349.9,-0.8,1.8,2471.429,13.29,0.025,293.5
2023-07-18T06:25:03,42.805,6.029,-0.003,0.003,-0.027,103.0,103.0,101.0,13.4,1505.2,321.0,-0.8,1.9,2471.43,13.29,0.004,315.0
2023-07-18T06:28:03,42.805,6.029,-0.026,0.006,-0.032,103.0,103.0,101.0,13.4,1505.2,341.1,-0.8,1.8,2471.459,13.29,0.026,283.0
2023-07-18T06:31:03,42.805,6.029,-0.014,0.034,-0.006,102.0,102.0,102.0,13.3,1505.2,341.1,-0.7,1.8,2471.456,13.29,0.036,337.6
2023-07-18T06:34:03,42.805,6.029,-0.014,-0.012,-0.054,103.0,102.0,101.0,13.4,1505.2,334.6,-0.8,1.8,2471.423,13.29,0.018,229.4
2023-07-18T06:37:03,42.805,6.029,-0.008,0.002,0.005,102.0,103.0,101.0,13.4,1505.2,327.9,-0.7,1.8,2471.429,13.29,0.008,284.0
2023-07-18T06:40:03,42.805,6.029,-0.037,0.015,-0.013,102.0,103.0,101.0,13.3,1505.2,320.7,-0.8,1.8,2471.425,13.29,0.039,292.1
2023-07-18T06:43:03,42.805,6.029,-0.021,0.025,-0.017,102.0,102.0,101.0,13.4,1505.2,334.8,-0.8,1.8,2471.434,13.29,0.032,320.0
2023-07-18T06:46:03,42.805,6.029,-0.016,-0.006,-0.036,102.0,102.0,102.0,13.3,1505.2,346.2,-0.8,1.8,2471.45,13.29,0.017,249.4
2023-07-18T06:49:03,42.805,6.029,-0.015,0.021,0.007,103.0,102.0,102.0,13.4,1505.2,337.7,-0.8,1.9,2471.449,13.29,0.025,324.5
2023-07-18T06:52:03,42.805,6.029,-0.024,0.034,-0.017,102.0,102.0,101.0,13.4,1505.2,350.1,-0.7,1.8,2471.468,13.29,0.041,324.8
2023-07-18T06:55:03,42.805,6.029,-0.003,0.006,-0.058,103.0,102.0,101.0,13.3,1505.2,327.5,-0.8,1.8,2471.474,13.29,0.006,333.4
2023-07-18T06:58:03,42.805,6.029,-0.027,0.002,-0.026,103.0,103.0,103.0,13.4,1505.2,328.4,-0.7,1.8,2471.47,13.29,0.027,274.2
2023-07-18T07:04:03,42.805,6.029,-0.016,-0.01,-0.026,103.0,101.0,103.0,13.4,1505.2,324.9,-0.7,1.8,2471.503,13.29,0.018,238.0
2023-07-18T07:07:03,42.805,6.029,-0.026,0.014,-0.026,102.0,102.0,101.0,13.4,1505.2,334.7,-0.8,1.9,2471.495,13.29,0.029,298.3
2023-07-18T07:10:03,42.805,6.029,-0.026,0.028,-0.014,103.0,103.0,102.0,13.3,1505.2,337.9,-0.8,1.9,2471.466,13.29,0.038,317.1
2023-07-18T07:13:03,42.805,6.029,-0.031,-0.002,-0.058,103.0,103.0,101.0,13.4,1505.2,329.5,-0.8,1.8,2471.501,13.29,0.031,266.3
2023-07-18T07:16:03,42.805,6.029,-0.023,0.019,-0.057,103.0,102.0,100.0,13.4,1505.2,347.4,-0.8,1.8,2471.466,13.29,0.029,309.6
2023-07-18T07:19:03,42.805,6.029,-0.029,0.014,-0.012,104.0,102.0,101.0,13.3,1505.2,338.8,-0.8,1.8,2471.465,13.29,0.032,295.8
2023-07-18T07:22:03,42.805,6.029,-0.021,0.023,-0.032,103.0,103.0,101.0,13.4,1505.2,341.5,-0.8,1.8,2471.486,13.29,0.031,317.6
2023-07-18T07:25:03,42.805,6.029,-0.015,0.006,-0.062,103.0,102.0,102.0,13.3,1505.2,333.9,-0.8,1.8,2471.439,13.29,0.016,291.8
2023-07-18T07:28:03,42.805,6.029,-0.006,0.022,-0.026,102.0,102.0,102.0,13.3,1505.2,351.3,-0.8,1.8,2471.431,13.29,0.022,344.7
2023-07-18T07:31:03,42.805,6.029,-0.028,-0.002,-0.031,103.0,102.0,101.0,13.3,1505.2,324.1,-0.8,1.8,2471.479,13.29,0.028,265.9
2023-07-18T07:34:03,42.805,6.029,-0.006,0.021,-0.003,103.0,104.0,101.0,13.4,1505.2,326.5,-0.7,1.8,2471.467,13.29,0.021,344.1
2023-07-18T07:37:03,42.805,6.029,-0.047,0.004,-0.034,102.0,102.0,102.0,13.4,1505.2,330.9,-0.8,1.8,2471.462,13.29,0.047,274.9
2023-07-18T07:40:03,42.805,6.029,-0.004,0.003,-0.013,102.0,101.0,101.0,13.3,1505.2,324.7,-0.8,1.8,2471.471,13.29,0.005,306.9
2023-07-18T07:43:03,42.805,6.029,-0.04,0.039,-0.019,102.0,102.0,102.0,13.3,1505.2,334.8,-0.7,1.8,2471.444,13.29,0.055,314.3
2023-07-18T07:46:03,42.805,6.029,-0.024,0.025,-0.041,103.0,102.0,101.0,13.3,1505.2,335.6,-0.8,1.8,2471.453,13.29,0.034,316.2
2023-07-18T07:49:03,42.805,6.029,0.004,0.024,-0.029,103.0,103.0,101.0,13.4,1505.2,349.5,-0.8,1.8,2471.493,13.29,0.024,9.5
2023-07-18T07:52:03,42.805,6.029,-0.03,0.007,-0.026,102.0,102.0,101.0,13.4,1505.2,323.9,-0.8,1.8,2471.471,13.29,0.03,283.1
2023-07-18T07:55:03,42.805,6.029,-0.032,0.03,-0.012,102.0,102.0,101.0,13.3,1505.2,341.9,-0.8,1.8,2471.473,13.29,0.043,313.1
2023-07-18T07:58:03,42.805,6.029,-0.027,0.003,-0.061,102.0,102.0,101.0,13.3,1505.2,339.9,-0.8,1.8,2471.443,13.29,0.027,276.3
2023-07-18T08:04:03,42.805,6.029,-0.036,0.017,-0.049,103.0,103.0,100.0,13.4,1505.2,343.7,-0.8,1.8,2471.501,13.29,0.039,295.3
2023-07-18T08:07:03,42.805,6.029,-0.032,0.012,-0.042,103.0,102.0,101.0,13.3,1505.2,323.1,-0.7,1.8,2471.504,13.29,0.034,290.6
2023-07-18T08:10:03,42.805,6.029,-0.013,0.028,-0.007,103.0,102.0,101.0,13.4,1505.2,344.8,-0.8,1.8,2471.492,13.29,0.03,335.1
2023-07-18T08:13:03,42.805,6.029,-0.024,0.005,-0.015,105.0,103.0,101.0,13.4,1505.2,346.2,-0.7,1.8,2471.459,13.29,0.024,281.8
2023-07-18T08:16:03,42.805,6.029,-0.037,0.0,-0.03,103.0,102.0,101.0,13.4,1505.2,322.3,-0.7,1.8,2471.449,13.29,0.037,270.0
2023-07-18T08:19:03,42.805,6.029,-0.022,0.012,-0.022,101.0,103.0,101.0,13.4,1505.2,329.2,-0.8,1.8,2471.452,13.29,0.025,298.6
2023-07-18T08:22:03,42.805,6.029,-0.008,0.03,-0.03,102.0,102.0,102.0,13.4,1505.2,340.8,-0.7,1.8,2471.448,13.29,0.031,345.1
2023-07-18T08:25:03,42.805,6.029,-0.025,0.014,-0.025,102.0,101.0,102.0,13.4,1505.2,350.5,-0.8,1.9,2471.411,13.29,0.028,299.3
2023-07-18T08:28:03,42.805,6.029,-0.015,0.014,-0.046,103.0,102.0,101.0,13.4,1505.2,335.6,-0.7,1.9,2471.457,13.29,0.02,313.0
2023-07-18T08:31:03,42.805,6.029,-0.034,0.032,-0.037,104.0,102.0,100.0,13.4,1505.2,353.1,-0.7,1.8,2471.443,13.29,0.046,313.3
2023-07-18T08:34:03,42.805,6.029,-0.029,0.017,-0.002,103.0,102.0,100.0,13.3,1505.2,322.9,-0.8,1.8,2471.456,13.29,0.033,300.4
2023-07-18T08:37:03,42.805,6.029,-0.034,0.008,-0.051,102.0,101.0,101.0,13.4,1505.2,338.8,-0.8,1.8,2471.446,13.29,0.034,283.2
2023-07-18T08:40:03,42.805,6.029,-0.032,0.023,-0.034,103.0,103.0,100.0,13.4,1505.2,349.5,-0.7,1.8,2471.396,13.29,0.039,305.7
2023-07-18T08:43:03,42.805,6.029,-0.032,-0.003,-0.056,103.0,103.0,100.0,13.4,1505.2,329.1,-0.7,1.8,2471.457,13.29,0.032,264.6
2023-07-18T08:46:03,42.805,6.029,-0.033,0.017,0.009,103.0,102.0,101.0,13.3,1505.2,331.3,-0.8,1.8,2471.413,13.29,0.037,297.3
2023-07-18T08:49:03,42.805,6.029,-0.025,0.01,-0.014,104.0,103.0,101.0,13.3,1505.2,324.2,-0.8,1.8,2471.462,13.29,0.026,291.8
2023-07-18T08:52:03,42.805,6.029,-0.001,0.022,-0.011,103.0,102.0,101.0,13.4,1505.2,346.7,-0.8,1.8,2471.439,13.29,0.022,357.4
2023-07-18T08:55:03,42.805,6.029,-0.022,0.008,-0.036,102.0,102.0,101.0,13.4,1505.2,340.2,-0.7,1.8,2471.457,13.29,0.023,290.0
2023-07-18T08:58:03,42.805,6.029,-0.004,0.006,-0.021,102.0,103.0,101.0,13.4,1505.2,324.9,-0.8,1.8,2471.425,13.29,0.007,326.3
2023-07-18T09:04:03,42.805,6.029,-0.024,0.021,-0.05,103.0,102.0,103.0,13.4,1505.2,342.2,-0.8,1.8,2471.455,13.29,0.031,311.2
2023-07-18T09:07:03,42.805,6.029,-0.005,0.019,0.006,103.0,102.0,101.0,13.4,1505.2,342.7,-0.8,1.8,2471.454,13.29,0.019,345.3
2023-07-18T09:10:03,42.805,6.029,-0.011,0.008,-0.016,103.0,104.0,99.0,13.3,1505.2,328.4,-0.8,1.8,2471.488,13.29,0.013,306.0
2023-07-18T09:13:03,42.805,6.029,-0.033,0.016,-0.039,102.0,102.0,102.0,13.3,1505.2,345.6,-0.8,1.8,2471.433,13.29,0.036,295.9
2023-07-18T09:16:03,42.805,6.029,-0.019,0.004,-0.03,103.0,102.0,101.0,13.4,1505.2,344.7,-0.8,1.8,2471.406,13.29,0.019,281.9
2023-07-18T09:19:03,42.805,6.029,-0.012,0.009,-0.038,103.0,103.0,101.0,13.3,1505.2,341.9,-0.8,1.8,2471.42,13.29,0.015,306.9
2023-07-18T09:22:03,42.805,6.029,-0.025,0.005,-0.033,103.0,101.0,101.0,13.3,1505.2,329.1,-0.8,1.8,2471.413,13.29,0.025,281.3
2023-07-18T09:25:03,42.805,6.029,-0.002,0.014,0.003,102.0,104.0,101.0,13.4,1505.2,339.1,-0.8,1.8,2471.479,13.29,0.014,351.9
2023-07-18T09:28:03,42.805,6.029,-0.027,0.01,-0.04,101.0,101.0,102.0,13.3,1505.2,335.9,-0.7,1.8,2471.442,13.29,0.028,290.3
2023-07-18T09:31:03,42.805,6.029,-0.044,0.019,-0.026,102.0,103.0,102.0,13.3,1505.2,331.3,-0.7,1.8,2471.392,13.29,0.047,293.4
2023-07-18T09:34:03,42.805,6.029,-0.043,0.014,-0.045,103.0,103.0,102.0,13.4,1505.2,336.8,-0.8,1.8,2471.378,13.29,0.045,288.0
2023-07-18T09:37:03,42.805,6.029,-0.015,0.009,-0.026,103.0,104.0,100.0,13.4,1505.2,344.2,-0.8,1.8,2471.412,13.29,0.017,301.0
2023-07-18T09:40:03,42.805,6.029,-0.033,0.029,-0.051,102.0,101.0,102.0,13.3,1505.2,340.3,-0.8,1.8,2471.402,13.29,0.043,311.3
2023-07-18T09:43:03,42.805,6.029,-0.034,0.018,0.004,103.0,103.0,101.0,13.3,1505.2,327.5,-0.8,1.8,2471.399,13.29,0.038,297.9
2023-07-18T09:46:03,42.805,6.029,-0.022,0.01,-0.047,102.0,103.0,101.0,13.4,1505.2,341.5,-0.8,1.8,2471.414,13.29,0.024,294.4
2023-07-18T09:49:03,42.805,6.029,0.001,-0.005,-0.016,103.0,103.0,101.0,13.4,1505.2,344.7,-0.7,1.8,2471.388,13.29,0.005,168.7
2023-07-18T09:52:03,42.805,6.029,0.005,0.003,-0.007,103.0,100.0,102.0,13.4,1505.2,336.4,-0.8,1.8,2471.395,13.29,0.005,59.0